Weather History for Colima, Mexico

Change the Weather History Date:

Thursday, January 31, 2013

  Actual Average Record
Temperature  
Mean Temperature 76 °F -  
Max Temperature 88 °F 83 °F 91 °F (2002)
Min Temperature 63 °F 65 °F 59 °F (2004)
Cooling Degree Days 10    
Growing Degree Days 26 (Base 50)    
Moisture  
Dew Point 62 °F    
Average Humidity 66    
Maximum Humidity 94    
Minimum Humidity 36    
Precipitation  
Precipitation 0.00 in - - ()
Sea Level Pressure  
Sea Level Pressure 30.01 in    
Wind  
Wind Speed 4 mph ()    
Max Wind Speed 20 mph    
Max Gust Speed -    
Visibility 7.2 miles    
Events      
Averages and records for this station are not official NWS values.
T = Trace of Precipitation, MM = Missing Value Source: Averaged Metar Reports

Daily Weather History Graph

Daily Weather History Graph

Search for Another Location

Airport:

Trip Planner

Search our weather history database for the weather conditions in past years. The results will help you decide how hot, cold, wet, or windy it might be!

Date:

Astronomy

Jan. 31, 2013 Rise Set
Actual Time 7:29 AM CST 6:46 PM CST
Civil Twilight 7:06 AM CST 7:09 PM CST
Nautical Twilight 6:39 AM CST 7:36 PM CST
Astronomical Twilight 6:13 AM CST 8:02 PM CST
Moon 11:00 PM CST (1/31) 10:15 AM CST (1/31)
Length of Visible Light 12h 03m
Length of Day
11h 17m
Waning Gibbous, 79% of the Moon is Illuminated
Jan 31
Waning Gibbous
Feb 3
Last Quarter
Feb 10
New
Feb 17
First Quarter
Feb 25
Full

Hourly Weather History & Observations

Time (CST) Temp. Heat Index Dew Point Humidity Pressure Visibility Wind Dir Wind Speed Gust Speed Precip Events Conditions
5:45 AM 65 °F - 51 °F 51% 29.92 in 6 mi NE 4.5 mph - -   Haze
6:00 AM 66.2 °F - 60.8 °F 83% 29.97 in 8.0 mi Calm Calm - N/A   Clear
6:40 AM 68.0 °F - 62.6 °F 83% 29.99 in 8.0 mi Calm Calm - N/A   Clear
7:40 AM 69.8 °F - 62.6 °F 78% 30.02 in 8.0 mi Calm Calm - N/A   Clear
8:40 AM 73.4 °F - 62.6 °F 69% 30.02 in 8.0 mi Calm Calm - N/A   Clear
8:50 AM 71 °F - 57 °F 51% 30.01 in 5 mi East 2.2 mph - -   Haze
9:40 AM 77.0 °F - 62.6 °F 61% 30.07 in 8.0 mi Calm Calm - N/A   Clear
10:40 AM 78.8 °F - 62.6 °F 57% 30.08 in 8.0 mi Calm Calm - N/A   Clear
11:42 AM 80.6 °F 80.3 °F 53.6 °F 39% 30.07 in 8.0 mi Calm Calm - N/A   Scattered Clouds
11:49 AM 82 °F - 59 °F 36% 30.01 in 6 mi East 2.2 mph - -   Haze
12:49 PM 80.6 °F 80.5 °F 55.4 °F 42% 30.04 in 8.0 mi South 8.1 mph - N/A   Scattered Clouds
1:40 PM 80.6 °F 80.5 °F 55.4 °F 42% 30.02 in 8.0 mi SSW 11.5 mph - N/A   Scattered Clouds
2:50 PM 82.4 °F 82.5 °F 59.0 °F 45% 29.98 in 8.0 mi SSW 13.8 mph - N/A   Scattered Clouds
2:51 PM 87 °F - 68 °F 44% 29.91 in 6 mi NW 4.5 mph - -   Haze
3:42 PM 78.8 °F - 64.4 °F 61% 29.95 in 8.0 mi WSW 19.6 mph - N/A   Mostly Cloudy
4:46 PM 75.2 °F - 66.2 °F 73% 30.00 in 8.0 mi WSW 17.3 mph - N/A   Mostly Cloudy
5:42 PM 73.4 °F - 66.2 °F 78% 30.01 in 8.0 mi WSW 13.8 mph - N/A   Mostly Cloudy
5:49 PM 78 °F - 66 °F 57% 29.93 in 6 mi South 4.5 mph - -   Haze
6:52 PM 69.8 °F - 66.2 °F 88% 30.03 in 8.0 mi WSW 8.1 mph - N/A   Mostly Cloudy
7:48 PM 69.8 °F - 66.2 °F 88% 30.05 in 8.0 mi WSW 8.1 mph - N/A   Mostly Cloudy
8:44 PM 69.8 °F - 64.4 °F 83% 30.08 in 8.0 mi Calm Calm - N/A   Mostly Cloudy
8:53 PM 72 °F - 65 °F 71% 29.99 in 5 mi NE 2.2 mph - -   Haze
9:58 PM 68.0 °F - 66.2 °F 94% 30.08 in 6.0 mi Calm Calm - N/A   Mostly Cloudy
10:43 PM 68.0 °F - 66.2 °F 94% 30.09 in 6.0 mi Calm Calm - N/A   Mostly Cloudy
11:50 PM 66 °F - 62 °F 83% 30.02 in 5 mi SE 2.2 mph - -   Haze